Time,TemperatureF,DewpointF,PressureIn,WindDirection,WindDirectionDegrees,WindSpeedMPH,WindSpeedGustMPH,Humidity,HourlyPrecipIn,Conditions,Clouds,dailyrainin,SoftwareType,DateUTC
2013-03-03 00:04:00,32.2,21.0,29.96,NNE,16,5.0,15.0,64,0.00,,,0.00,weatherlink.com 1.10,2013-03-03 05:04:00,
2013-03-03 00:19:00,31.9,21.0,29.96,North,351,4.0,7.0,65,0.00,,,0.00,weatherlink.com 1.10,2013-03-03 05:19:00,
2013-03-03 00:34:00,31.8,21.0,29.95,NNW,338,2.0,7.0,65,0.00,,,0.00,weatherlink.com 1.10,2013-03-03 05:34:00,
2013-03-03 00:49:00,31.6,21.0,29.95,North,352,3.0,12.0,65,0.00,,,0.00,weatherlink.com 1.10,2013-03-03 05:49:00,
2013-03-03 01:04:00,31.3,21.0,29.95,NNE,20,2.0,10.0,66,0.00,,,0.00,weatherlink.com 1.10,2013-03-03 06:04:00,
2013-03-03 01:19:00,31.2,21.0,29.96,North,11,3.0,8.0,65,0.00,,,0.00,weatherlink.com 1.10,2013-03-03 06:19:00,
2013-03-03 01:34:00,31.0,20.0,29.96,NW,319,10.0,10.0,65,0.00,,,0.00,weatherlink.com 1.10,2013-03-03 06:34:00,
2013-03-03 01:49:00,30.8,20.0,29.96,NW,321,2.0,7.0,65,0.00,,,0.00,weatherlink.com 1.10,2013-03-03 06:49:00,
2013-03-03 02:04:00,30.7,20.0,29.96,NW,318,3.0,11.0,65,0.00,,,0.00,weatherlink.com 1.10,2013-03-03 07:04:00,
2013-03-03 02:19:00,30.7,20.0,29.95,NE,34,12.0,13.0,64,0.00,,,0.00,weatherlink.com 1.10,2013-03-03 07:19:00,
2013-03-03 02:34:00,30.6,20.0,29.95,NE,54,9.0,13.0,65,0.00,,,0.00,weatherlink.com 1.10,2013-03-03 07:34:00,
2013-03-03 02:49:00,30.4,19.0,29.94,NNE,23,11.0,12.0,64,0.00,,,0.00,weatherlink.com 1.10,2013-03-03 07:49:00,
2013-03-03 03:04:00,30.4,19.0,29.94,NNW,335,7.0,15.0,64,0.00,,,0.00,weatherlink.com 1.10,2013-03-03 08:04:00,
2013-03-03 03:19:00,30.3,19.0,29.94,NNE,33,6.0,10.0,63,0.00,,,0.00,weatherlink.com 1.10,2013-03-03 08:19:00,
2013-03-03 03:34:00,30.1,19.0,29.94,NNE,13,6.0,12.0,63,0.00,,,0.00,weatherlink.com 1.10,2013-03-03 08:34:00,
2013-03-03 03:49:00,30.0,19.0,29.94,NE,44,3.0,9.0,63,0.00,,,0.00,weatherlink.com 1.10,2013-03-03 08:49:00,
2013-03-03 04:04:00,29.8,19.0,29.95,NW,325,5.0,7.0,64,0.00,,,0.00,weatherlink.com 1.10,2013-03-03 09:04:00,
2013-03-03 04:19:00,29.6,19.0,29.95,North,360,5.0,5.0,66,0.00,,,0.00,weatherlink.com 1.10,2013-03-03 09:19:00,
2013-03-03 04:34:00,29.3,20.0,29.95,NNE,27,1.0,7.0,68,0.00,,,0.00,weatherlink.com 1.10,2013-03-03 09:34:00,
2013-03-03 04:49:00,29.1,20.0,29.95,NNE,20,4.0,7.0,69,0.00,,,0.00,weatherlink.com 1.10,2013-03-03 09:49:00,
2013-03-03 05:04:00,29.0,20.0,29.95,NNE,12,4.0,8.0,69,0.00,,,0.00,weatherlink.com 1.10,2013-03-03 10:04:00,
2013-03-03 05:19:00,29.0,20.0,29.95,NW,320,7.0,11.0,68,0.00,,,0.00,weatherlink.com 1.10,2013-03-03 10:19:00,
2013-03-03 05:34:00,28.7,19.0,29.96,NE,41,5.0,7.0,67,0.00,,,0.00,weatherlink.com 1.10,2013-03-03 10:34:00,
2013-03-03 05:49:00,28.4,19.0,29.96,North,350,4.0,7.0,67,0.00,,,0.00,weatherlink.com 1.10,2013-03-03 10:49:00,
2013-03-03 06:04:00,28.3,18.0,29.97,NW,316,6.0,9.0,66,0.00,,,0.00,weatherlink.com 1.10,2013-03-03 11:04:00,
2013-03-03 06:19:00,28.3,17.0,29.97,NNW,339,3.0,7.0,64,0.00,,,0.00,weatherlink.com 1.10,2013-03-03 11:19:00,
2013-03-03 06:34:00,28.2,17.0,29.97,NW,312,4.0,8.0,63,0.00,,,0.00,weatherlink.com 1.10,2013-03-03 11:34:00,
2013-03-03 06:49:00,28.2,17.0,29.97,WNW,302,1.0,7.0,64,0.00,,,0.00,weatherlink.com 1.10,2013-03-03 11:49:00,
2013-03-03 07:04:00,28.0,17.0,29.97,NW,326,2.0,6.0,64,0.00,,,0.00,weatherlink.com 1.10,2013-03-03 12:04:00,
2013-03-03 07:19:00,28.2,17.0,29.98,ENE,77,4.0,11.0,62,0.00,,,0.00,weatherlink.com 1.10,2013-03-03 12:19:00,
2013-03-03 07:34:00,28.3,17.0,29.98,NW,314,8.0,11.0,63,0.00,,,0.00,weatherlink.com 1.10,2013-03-03 12:34:00,
2013-03-03 07:49:00,28.6,17.0,29.98,NE,38,5.0,8.0,62,0.00,,,0.00,weatherlink.com 1.10,2013-03-03 12:49:00,
2013-03-03 08:05:00,28.9,17.0,30.00,NNE,28,4.0,8.0,61,0.00,,,0.00,weatherlink.com 1.10,2013-03-03 13:05:00,
2013-03-03 08:20:00,29.2,17.0,30.00,NW,305,4.0,6.0,61,0.00,,,0.00,weatherlink.com 1.10,2013-03-03 13:20:00,
2013-03-03 08:35:00,29.5,17.0,30.00,NNE,28,4.0,8.0,59,0.00,,,0.00,weatherlink.com 1.10,2013-03-03 13:35:00,
2013-03-03 08:50:00,29.9,16.0,30.00,NNW,333,3.0,12.0,57,0.00,,,0.00,weatherlink.com 1.10,2013-03-03 13:50:00,
2013-03-03 09:05:00,30.3,16.0,30.00,North,1,4.0,9.0,56,0.00,,,0.00,weatherlink.com 1.10,2013-03-03 14:05:00,
2013-03-03 09:20:00,30.6,16.0,30.00,NE,47,2.0,7.0,56,0.00,,,0.00,weatherlink.com 1.10,2013-03-03 14:20:00,
2013-03-03 09:35:00,31.2,16.0,30.01,NNW,335,3.0,8.0,54,0.00,,,0.00,weatherlink.com 1.10,2013-03-03 14:35:00,
2013-03-03 09:50:00,31.6,16.0,30.01,North,350,6.0,9.0,52,0.00,,,0.00,weatherlink.com 1.10,2013-03-03 14:50:00,
2013-03-03 10:05:00,31.8,16.0,30.01,NNE,33,6.0,12.0,52,0.00,,,0.00,weatherlink.com 1.10,2013-03-03 15:05:00,
2013-03-03 10:20:00,32.7,17.0,30.01,NNW,327,8.0,11.0,52,0.00,,,0.00,weatherlink.com 1.10,2013-03-03 15:20:00,
2013-03-03 10:36:00,33.1,16.0,30.01,NNE,32,4.0,11.0,50,0.00,,,0.00,weatherlink.com 1.10,2013-03-03 15:36:00,
2013-03-03 10:50:00,33.9,16.0,30.00,NW,304,4.0,9.0,49,0.00,,,0.00,weatherlink.com 1.10,2013-03-03 15:50:00,
2013-03-03 11:05:00,34.0,17.0,30.01,WNW,290,3.0,9.0,49,0.00,,,0.00,weatherlink.com 1.10,2013-03-03 16:05:00,
2013-03-03 11:20:00,35.1,18.0,30.00,NW,316,5.0,11.0,49,0.00,,,0.00,weatherlink.com 1.10,2013-03-03 16:20:00,
2013-03-03 11:35:00,36.3,18.0,30.00,North,354,2.0,9.0,48,0.00,,,0.00,weatherlink.com 1.10,2013-03-03 16:35:00,
2013-03-03 11:50:00,37.3,18.0,30.00,NNW,347,4.0,6.0,46,0.00,,,0.00,weatherlink.com 1.10,2013-03-03 16:50:00,
2013-03-03 12:05:00,37.9,18.0,30.00,NNE,28,2.0,8.0,44,0.00,,,0.00,weatherlink.com 1.10,2013-03-03 17:05:00,
2013-03-03 12:20:00,38.9,18.0,29.99,NNE,23,5.0,10.0,43,0.00,,,0.00,weatherlink.com 1.10,2013-03-03 17:20:00,
2013-03-03 12:35:00,38.7,18.0,29.98,WNW,283,8.0,12.0,44,0.00,,,0.00,weatherlink.com 1.10,2013-03-03 17:35:00,
2013-03-03 12:50:00,39.2,18.0,29.97,North,5,4.0,8.0,43,0.00,,,0.00,weatherlink.com 1.10,2013-03-03 17:50:00,
2013-03-03 13:05:00,40.2,19.0,29.97,NNW,340,1.0,9.0,42,0.00,,,0.00,weatherlink.com 1.10,2013-03-03 18:05:00,
2013-03-03 13:20:00,39.5,19.0,29.96,NNW,345,5.0,12.0,44,0.00,,,0.00,weatherlink.com 1.10,2013-03-03 18:20:00,
2013-03-03 13:35:00,40.4,19.0,29.96,NW,307,4.0,9.0,43,0.00,,,0.00,weatherlink.com 1.10,2013-03-03 18:35:00,
2013-03-03 13:50:00,41.0,20.0,29.96,NW,311,6.0,13.0,43,0.00,,,0.00,weatherlink.com 1.10,2013-03-03 18:50:00,
2013-03-03 14:05:00,41.0,20.0,29.95,NNW,330,4.0,9.0,43,0.00,,,0.00,weatherlink.com 1.10,2013-03-03 19:05:00,
2013-03-03 14:20:00,40.6,20.0,29.95,NNE,18,8.0,12.0,43,0.00,,,0.00,weatherlink.com 1.10,2013-03-03 19:20:00,
2013-03-03 14:35:00,41.5,20.0,29.94,NE,45,4.0,8.0,42,0.00,,,0.00,weatherlink.com 1.10,2013-03-03 19:35:00,
2013-03-03 14:50:00,41.8,20.0,29.95,North,358,3.0,10.0,42,0.00,,,0.00,weatherlink.com 1.10,2013-03-03 19:50:00,
2013-03-03 15:05:00,41.3,20.0,29.94,NNE,17,6.0,10.0,42,0.00,,,0.00,weatherlink.com 1.10,2013-03-03 20:05:00,
2013-03-03 15:20:00,41.9,20.0,29.95,NNE,17,4.0,7.0,42,0.00,,,0.00,weatherlink.com 1.10,2013-03-03 20:20:00,
2013-03-03 15:35:00,41.9,20.0,29.94,North,349,4.0,8.0,42,0.00,,,0.00,weatherlink.com 1.10,2013-03-03 20:35:00,
2013-03-03 15:51:00,42.1,21.0,29.94,NW,319,3.0,10.0,43,0.00,,,0.00,weatherlink.com 1.10,2013-03-03 20:51:00,
2013-03-03 16:05:00,41.5,19.0,29.95,NE,49,6.0,10.0,41,0.00,,,0.00,weatherlink.com 1.10,2013-03-03 21:05:00,
2013-03-03 16:20:00,40.9,19.0,29.95,NE,43,9.0,12.0,42,0.00,,,0.00,weatherlink.com 1.10,2013-03-03 21:20:00,
2013-03-03 16:35:00,39.8,18.0,29.95,NW,309,8.0,15.0,42,0.00,,,0.00,weatherlink.com 1.10,2013-03-03 21:35:00,
2013-03-03 16:50:00,39.2,18.0,29.95,NNE,23,7.0,11.0,43,0.00,,,0.00,weatherlink.com 1.10,2013-03-03 21:50:00,
2013-03-03 17:06:00,38.9,19.0,29.95,NE,34,5.0,10.0,45,0.00,,,0.00,weatherlink.com 1.10,2013-03-03 22:06:00,
2013-03-03 17:20:00,38.1,18.0,29.96,NE,51,7.0,15.0,45,0.00,,,0.00,weatherlink.com 1.10,2013-03-03 22:20:00,
2013-03-03 17:36:00,37.5,18.0,29.96,NNE,25,7.0,11.0,46,0.00,,,0.00,weatherlink.com 1.10,2013-03-03 22:36:00,
2013-03-03 17:50:00,36.8,19.0,29.96,NNW,339,6.0,11.0,48,0.00,,,0.00,weatherlink.com 1.10,2013-03-03 22:50:00,
2013-03-03 18:06:00,35.9,18.0,29.97,NW,319,5.0,11.0,49,0.00,,,0.00,weatherlink.com 1.10,2013-03-03 23:06:00,
2013-03-03 18:21:00,35.0,18.0,29.98,NW,319,6.0,9.0,50,0.00,,,0.00,weatherlink.com 1.10,2013-03-03 23:21:00,
2013-03-03 18:36:00,34.4,18.0,29.98,NNE,13,2.0,13.0,51,0.00,,,0.00,weatherlink.com 1.10,2013-03-03 23:36:00,
2013-03-03 18:51:00,34.0,17.0,29.98,NNE,19,8.0,13.0,51,0.00,,,0.00,weatherlink.com 1.10,2013-03-03 23:51:00,
2013-03-03 19:06:00,33.5,17.0,29.99,NNE,16,9.0,11.0,52,0.00,,,0.00,weatherlink.com 1.10,2013-03-04 00:06:00,
2013-03-03 19:21:00,33.1,18.0,29.99,NW,318,7.0,11.0,54,0.00,,,0.00,weatherlink.com 1.10,2013-03-04 00:21:00,
2013-03-03 19:36:00,32.9,17.0,30.00,WNW,293,8.0,14.0,53,0.00,,,0.00,weatherlink.com 1.10,2013-03-04 00:36:00,
2013-03-03 19:51:00,32.7,17.0,30.01,North,350,9.0,15.0,53,0.00,,,0.00,weatherlink.com 1.10,2013-03-04 00:51:00,
2013-03-03 20:06:00,32.4,17.0,30.01,NE,41,5.0,11.0,54,0.00,,,0.00,weatherlink.com 1.10,2013-03-04 01:06:00,
2013-03-03 20:21:00,32.3,17.0,30.01,NNE,25,6.0,-999.0,54,-99.99,,,0.00,weatherlink.com 1.10,2013-03-04 01:21:00,
2013-03-03 20:36:00,32.0,18.0,30.01,NNE,18,5.0,13.0,56,0.00,,,0.00,weatherlink.com 1.10,2013-03-04 01:36:00,
2013-03-03 20:51:00,31.9,17.0,30.02,NNW,343,4.0,14.0,55,0.00,,,0.00,weatherlink.com 1.10,2013-03-04 01:51:00,
2013-03-03 21:06:00,31.8,17.0,30.02,NNE,25,8.0,14.0,55,0.00,,,0.00,weatherlink.com 1.10,2013-03-04 02:06:00,
2013-03-03 21:21:00,31.8,17.0,30.04,North,8,4.0,18.0,54,0.00,,,0.00,weatherlink.com 1.10,2013-03-04 02:21:00,
2013-03-03 21:36:00,31.5,17.0,30.05,North,11,3.0,12.0,55,0.00,,,0.00,weatherlink.com 1.10,2013-03-04 02:36:00,
2013-03-03 21:51:00,31.2,17.0,30.05,NNW,339,2.0,7.0,55,0.00,,,0.00,weatherlink.com 1.10,2013-03-04 02:51:00,
2013-03-03 22:06:00,30.6,17.0,30.05,NNE,25,2.0,4.0,58,0.00,,,0.00,weatherlink.com 1.10,2013-03-04 03:06:00,
2013-03-03 22:21:00,30.5,17.0,30.05,NW,314,2.0,4.0,57,0.00,,,0.00,weatherlink.com 1.10,2013-03-04 03:21:00,
2013-03-03 22:36:00,30.5,17.0,30.05,East,82,2.0,5.0,57,0.00,,,0.00,weatherlink.com 1.10,2013-03-04 03:36:00,
2013-03-03 22:51:00,30.5,17.0,30.05,NNE,12,4.0,6.0,57,0.00,,,0.00,weatherlink.com 1.10,2013-03-04 03:51:00,
2013-03-03 23:06:00,30.3,17.0,30.05,ENE,65,1.0,5.0,57,0.00,,,0.00,weatherlink.com 1.10,2013-03-04 04:06:00,
2013-03-03 23:22:00,30.2,16.0,30.05,NNW,347,2.0,4.0,57,0.00,,,0.00,weatherlink.com 1.10,2013-03-04 04:22:00,
2013-03-03 23:35:00,30.0,16.0,30.06,NE,41,2.0,4.0,57,0.00,,,0.00,weatherlink.com 1.10,2013-03-04 04:35:00,
2013-03-03 23:51:00,30.0,16.0,30.05,North,5,3.0,6.0,57,0.00,,,0.00,weatherlink.com 1.10,2013-03-04 04:51:00,